Location: gie�en
(50.5804°N, 8.6692°E)
Time: 16:02:17
(UTC+01:00)

Tiangong - Pass Details

Date: 20 October 2021
Orbit: 380 x 384 km, 41.5° (Epoch: 04 December)

Event Time Altitude Azimuth Distance (km) Brightness Sun altitude
Rises 19:31:16 0° 217° (SW) 2,266 5.6 -11.5°
Reaches altitude 10° 19:34:38 10° 179° (S) 1,411 3.9 -12.1°
Maximum altitude 19:35:33 11° 162° (SSE) 1,356 3.7 -12.2°
Drops below altitude 10° 19:36:28 10° 146° (SE) 1,410 3.6 -12.4°
Enters shadow 19:36:41 10° 142° (SE) 1,438 3.6 -12.4°
